Weather History for Morgantown, WV

Change the Weather History Date:

Sunday, August 12, 2012

  Actual Average Record
Temperature  
Mean Temperature 70 °F 72 °F  
Max Temperature 79 °F 83 °F 94 °F (1988)
Min Temperature 60 °F 62 °F 46 °F (1968)
Degree Days  
Heating Degree Days 0 0  
Month to date heating degree days 0 0  
Since 1 June heating degree days 19 34  
Since 1 July heating degree days 0 3  
Cooling Degree Days 5 8  
Month to date cooling degree days 124 96  
Year to date cooling degree days 877 580  
Since 1 June cooling degree days 700 513  
Growing Degree Days 20 (Base 50)    
Moisture  
Dew Point 58 °F    
Average Humidity 68    
Maximum Humidity 97    
Minimum Humidity 39    
Precipitation  
Precipitation 0.00 in 0.11 in 1.43 in (1952)
Month to date precipitation 1.64 1.42  
Year to date precipitation 19.74 27.34  
Sea Level Pressure  
Sea Level Pressure 30.03 in    
Wind  
Wind Speed 4 mph (SW)    
Max Wind Speed 10 mph    
Max Gust Speed 16 mph    
Visibility 10 miles    
Events      
T = Trace of Precipitation, MM = Missing Value Source: NWS Daily Summary

Daily Weather History Graph

Daily Weather History Graph

Search for Another Location

Airport:

Trip Planner

Search our weather history database for the weather conditions in past years. The results will help you decide how hot, cold, wet, or windy it might be!

Date:

Astronomy

Aug. 12, 2012 Rise Set
Actual Time 6:29 AM EDT 8:18 PM EDT
Civil Twilight 6:00 AM EDT 8:47 PM EDT
Nautical Twilight 5:25 AM EDT 9:23 PM EDT
Astronomical Twilight 4:47 AM EDT 10:00 PM EDT
Moon 1:41 AM EDT (8/12) 4:42 PM EDT (8/12)
Length of Visible Light 14h 47m
Length of Day
13h 49m
Waning Crescent, 24% of the Moon is Illuminated
Aug 12
Waning Crescent
Aug 17
New
Aug 24
First Quarter
Aug 31
Full
Sep 8
Last Quarter

Hourly Weather History & Observations

Time (EDT) Temp. Dew Point Humidity Pressure Visibility Wind Dir Wind Speed Gust Speed Precip Events Conditions
12:53 AM 64.9 °F 57.9 °F 78% 30.00 in 10.0 mi SSW 3.5 mph - N/A   Overcast
1:53 AM 64.9 °F 57.9 °F 78% 30.00 in 10.0 mi SSW 3.5 mph - N/A   Mostly Cloudy
2:53 AM 62.1 °F 59.0 °F 90% 30.00 in 10.0 mi Calm Calm - N/A   Scattered Clouds
3:53 AM 61.0 °F 59.0 °F 93% 30.01 in 10.0 mi South 3.5 mph - N/A   Partly Cloudy
4:53 AM 63.0 °F 59.0 °F 87% 30.01 in 10.0 mi South 3.5 mph - N/A   Overcast
5:53 AM 63.0 °F 59.0 °F 87% 30.01 in 10.0 mi SSW 4.6 mph - N/A   Overcast
6:53 AM 63.0 °F 59.0 °F 87% 30.02 in 7.0 mi Calm Calm - N/A   Mostly Cloudy
7:53 AM 63.0 °F 59.0 °F 87% 30.03 in 10.0 mi Calm Calm - N/A   Mostly Cloudy
8:53 AM 64.9 °F 59.0 °F 81% 30.04 in 10.0 mi Variable 6.9 mph - N/A   Clear
9:53 AM 68.0 °F 60.1 °F 76% 30.04 in 10.0 mi South 4.6 mph - N/A   Scattered Clouds
10:40 AM 69.8 °F 60.8 °F 73% 30.06 in 10.0 mi SW 6.9 mph - N/A   Mostly Cloudy
10:53 AM 71.1 °F 60.1 °F 68% 30.04 in 10.0 mi Variable 6.9 mph - N/A   Mostly Cloudy
11:29 AM 73.4 °F 60.8 °F 65% 30.05 in 10.0 mi WSW 5.8 mph - N/A   Overcast
11:48 AM 71.6 °F 59.0 °F 64% 30.05 in 10.0 mi NW 3.5 mph - N/A   Overcast
11:53 AM 72.0 °F 59.0 °F 64% 30.03 in 10.0 mi West 9.2 mph - N/A   Overcast
12:06 PM 71.6 °F 59.0 °F 64% 30.05 in 10.0 mi Variable 3.5 mph - N/A   Overcast
12:53 PM 75.0 °F 57.0 °F 53% 30.03 in 10.0 mi WSW 6.9 mph - N/A   Scattered Clouds
1:53 PM 75.0 °F 55.9 °F 51% 30.02 in 10.0 mi NW 5.8 mph - N/A   Mostly Cloudy
2:53 PM 75.9 °F 55.9 °F 50% 30.01 in 10.0 mi WNW 5.8 mph - N/A   Overcast
3:53 PM 77.0 °F 54.0 °F 45% 30.00 in 10.0 mi WSW 4.6 mph - N/A   Scattered Clouds
4:53 PM 78.1 °F 54.0 °F 43% 30.00 in 10.0 mi Variable 4.6 mph - N/A   Clear
5:53 PM 79.0 °F 52.0 °F 39% 30.00 in 10.0 mi Variable 5.8 mph - N/A   Mostly Cloudy
6:53 PM 77.0 °F 53.1 °F 43% 30.01 in 10.0 mi Variable 4.6 mph - N/A   Partly Cloudy
7:53 PM 75.0 °F 54.0 °F 48% 30.02 in 10.0 mi Calm Calm - N/A   Partly Cloudy
8:53 PM 69.1 °F 55.9 °F 63% 30.04 in 10.0 mi South 3.5 mph - N/A   Clear
9:53 PM 64.9 °F 57.9 °F 78% 30.06 in 10.0 mi Calm Calm - N/A   Clear
10:53 PM 64.0 °F 57.9 °F 80% 30.06 in 10.0 mi South 3.5 mph - N/A   Clear
11:53 PM 63.0 °F 57.0 °F 81% 30.06 in 10.0 mi Calm Calm - N/A   Clear